TWY7P UZTT-RKSI

Flight info

Callsign TWY7P
Flight time N/A
Altitude 41000
Route TISIB2A TISIB P984 IZIMA L135 TIRBA M610 RULAD/K0869S1250 A343 POSOT B215 FKG W188 LIKMI W270 DKO W69 HUR B339 LADIX W34 VAPGU W100 ORAVA W201 UNSEK A326 DONVO G597 AGAVO/N0465F410 Y644 REBIT REBIT2H
Aircraft A332/H-SDE3GHIJ2J3J5M1RVWXY/LB2D1

Departure

Time 2026-05-06 18:17
Airport Tashkent International Airport (UZTT)

Arrival

Time N/A
Airport Incheon International Airport (RKSI)
Time Latitude Longitude Altitude Speed Heading
2026-05-06 17:47 41.26178 69.26870 1385 ft 0 kts 22°
2026-05-06 18:02 41.26176 69.26869 1385 ft 1 kts 22°
2026-05-06 18:03 41.26160 69.26861 1385 ft 3 kts 14°
2026-05-06 18:03 41.26140 69.26856 1385 ft 3 kts
2026-05-06 18:03 41.26120 69.26858 1384 ft 3 kts 343°
2026-05-06 18:03 41.26103 69.26869 1382 ft 3 kts 321°
2026-05-06 18:04 41.26089 69.26887 1384 ft 3 kts 301°
2026-05-06 18:04 41.26080 69.26911 1381 ft 3 kts 285°
2026-05-06 18:04 41.26076 69.26937 1383 ft 3 kts 272°
2026-05-06 18:04 41.26077 69.26963 1385 ft 3 kts 256°
2026-05-06 18:05 41.26080 69.26976 1383 ft 0 kts 246°
2026-05-06 18:13 41.26079 69.26974 1385 ft 1 kts 246°
2026-05-06 18:13 41.26073 69.26955 1383 ft 3 kts 248°
2026-05-06 18:14 41.26054 69.26894 1380 ft 12 kts 246°
2026-05-06 18:14 41.26009 69.26758 1385 ft 20 kts 244°
2026-05-06 18:14 41.25944 69.26562 1381 ft 26 kts 246°
2026-05-06 18:14 41.25825 69.26391 1383 ft 25 kts 221°
2026-05-06 18:15 41.25718 69.26202 1383 ft 26 kts 244°
2026-05-06 18:15 41.25645 69.25987 1382 ft 14 kts 249°
2026-05-06 18:15 41.25634 69.25966 1381 ft 2 kts 214°
2026-05-06 18:15 41.25619 69.25970 1381 ft 3 kts 157°
2026-05-06 18:16 41.25609 69.25990 1386 ft 2 kts 104°
2026-05-06 18:16 41.25613 69.26014 1382 ft 5 kts 82°
2026-05-06 18:16 41.25614 69.26029 1381 ft 4 kts 82°
2026-05-06 18:16 41.25648 69.26337 1382 ft 69 kts 81°
2026-05-06 18:17 41.25756 69.27251 1388 ft 129 kts 81°
2026-05-06 18:17 41.25912 69.28662 1423 ft 177 kts 81°
2026-05-06 18:17 41.26097 69.30344 1961 ft 184 kts 81°
2026-05-06 18:17 41.26294 69.32020 2795 ft 183 kts 81°
2026-05-06 18:18 41.26498 69.33667 3605 ft 174 kts 80°
2026-05-06 18:18 41.26699 69.35194 4305 ft 164 kts 80°
2026-05-06 18:18 41.26906 69.36658 4949 ft 160 kts 79°
2026-05-06 18:18 41.27137 69.38136 5413 ft 167 kts 78°
2026-05-06 18:19 41.27312 69.39684 5917 ft 171 kts 82°
2026-05-06 18:19 41.27450 69.41281 6442 ft 177 kts 87°
2026-05-06 18:19 41.27472 69.42940 6994 ft 182 kts 94°
2026-05-06 18:19 41.27520 69.44630 7487 ft 192 kts 84°
2026-05-06 18:20 41.27724 69.46479 7823 ft 211 kts 82°
2026-05-06 18:20 41.27966 69.48468 8281 ft 223 kts 82°
2026-05-06 18:20 41.28179 69.50549 8768 ft 231 kts 88°
2026-05-06 18:20 41.27916 69.52650 8962 ft 232 kts 117°
2026-05-06 18:21 41.26862 69.54223 8992 ft 230 kts 151°
2026-05-06 18:21 41.25351 69.54882 9154 ft 229 kts 171°
2026-05-06 18:21 41.23748 69.55191 9697 ft 236 kts 174°
2026-05-06 18:21 41.22115 69.55476 10463 ft 240 kts 171°
2026-05-06 18:22 41.20458 69.56163 10863 ft 261 kts 153°
2026-05-06 18:22 41.19058 69.57778 11152 ft 285 kts 127°
2026-05-06 18:22 41.17986 69.60116 11493 ft 307 kts 120°
2026-05-06 18:22 41.16971 69.62714 11830 ft 327 kts 118°
2026-05-06 18:23 41.15916 69.65481 12152 ft 346 kts 118°
2026-05-06 18:23 41.14803 69.68409 12455 ft 363 kts 118°
2026-05-06 18:23 41.13821 69.71550 12870 ft 375 kts 106°
2026-05-06 18:23 41.13372 69.74976 13474 ft 379 kts 98°
2026-05-06 18:24 41.13105 69.78472 14098 ft 383 kts 96°
2026-05-06 18:24 41.12861 69.82003 14690 ft 386 kts 96°
2026-05-06 18:24 41.12614 69.85566 15246 ft 390 kts 96°
2026-05-06 18:24 41.12356 69.89170 15823 ft 394 kts 96°
2026-05-06 18:25 41.12092 69.92806 16399 ft 398 kts 96°
2026-05-06 18:25 41.11822 69.96471 16959 ft 400 kts 96°
2026-05-06 18:25 41.11548 70.00158 17478 ft 404 kts 96°
2026-05-06 18:25 41.11273 70.03832 17987 ft 407 kts 96°
2026-05-06 18:26 41.10991 70.07573 18490 ft 409 kts 96°
2026-05-06 18:26 41.10706 70.11340 18969 ft 413 kts 96°
2026-05-06 18:26 41.10417 70.15149 19441 ft 416 kts 96°
2026-05-06 18:26 41.10132 70.18989 19911 ft 419 kts 95°
2026-05-06 18:27 41.10079 70.22864 20345 ft 421 kts 86°
2026-05-06 18:27 41.10555 70.26696 20784 ft 422 kts 75°
2026-05-06 18:27 41.11397 70.30433 21249 ft 424 kts 71°
2026-05-06 18:27 41.12371 70.34089 21674 ft 426 kts 69°
2026-05-06 18:28 41.13435 70.37773 22098 ft 428 kts 68°
2026-05-06 18:28 41.14533 70.41466 22509 ft 431 kts 68°
2026-05-06 18:28 41.15641 70.45184 22924 ft 434 kts 68°
2026-05-06 18:28 41.16746 70.48927 23351 ft 437 kts 68°
2026-05-06 18:29 41.17844 70.52699 23778 ft 440 kts 68°
2026-05-06 18:29 41.18940 70.56506 24188 ft 443 kts 68°
2026-05-06 18:29 41.20038 70.60346 24595 ft 445 kts 69°
2026-05-06 18:29 41.21135 70.64197 25003 ft 447 kts 68°
2026-05-06 18:30 41.22235 70.68071 25440 ft 448 kts 68°
2026-05-06 18:30 41.23336 70.71955 25850 ft 450 kts 68°
2026-05-06 18:30 41.24443 70.75862 26247 ft 452 kts 68°
2026-05-06 18:30 41.25176 70.78452 26509 ft 453 kts 68°
2026-05-06 18:31 41.26646 70.83651 27010 ft 455 kts 68°
2026-05-06 18:31 41.27757 70.87592 27400 ft 456 kts 68°
2026-05-06 18:31 41.28871 70.91548 27747 ft 457 kts 68°
2026-05-06 18:31 41.29989 70.95520 28096 ft 459 kts 68°
2026-05-06 18:32 41.30731 70.98159 28330 ft 460 kts 68°
2026-05-06 18:32 41.31851 71.02150 28688 ft 461 kts 68°
2026-05-06 18:32 41.32973 71.06155 29035 ft 462 kts 68°
2026-05-06 18:32 41.34096 71.10174 29369 ft 464 kts 68°
2026-05-06 18:33 41.35219 71.14200 29707 ft 465 kts 67°
2026-05-06 18:33 41.36344 71.18234 30000 ft 466 kts 67°
2026-05-06 18:33 41.37475 71.22294 30316 ft 467 kts 67°
2026-05-06 18:33 41.38603 71.26349 30589 ft 469 kts 67°
2026-05-06 18:34 41.39738 71.30432 30828 ft 471 kts 67°
2026-05-06 18:34 41.40874 71.34531 31117 ft 472 kts 67°
2026-05-06 18:34 41.42010 71.38630 31502 ft 471 kts 67°
2026-05-06 18:34 41.43138 71.42716 31856 ft 470 kts 67°
2026-05-06 18:35 41.44266 71.46807 32149 ft 470 kts 67°
2026-05-06 18:35 41.45393 71.50903 32481 ft 470 kts 67°
2026-05-06 18:35 41.46511 71.54970 32825 ft 469 kts 66°
2026-05-06 18:35 41.47631 71.59055 33171 ft 469 kts 66°
2026-05-06 18:36 41.48751 71.63145 33477 ft 468 kts 66°
2026-05-06 18:36 41.49870 71.67230 33773 ft 468 kts 66°
2026-05-06 18:36 41.50971 71.71256 34064 ft 468 kts 66°
2026-05-06 18:36 41.52089 71.75347 34351 ft 468 kts 66°
2026-05-06 18:37 41.53203 71.79434 34656 ft 468 kts 66°
2026-05-06 18:37 41.54317 71.83521 34994 ft 467 kts 66°
2026-05-06 18:37 41.55426 71.87597 35293 ft 468 kts 66°
2026-05-06 18:37 41.56535 71.91685 35569 ft 468 kts 66°
2026-05-06 18:38 41.57646 71.95778 35838 ft 468 kts 66°
2026-05-06 18:38 41.58755 71.99871 36092 ft 469 kts 66°
2026-05-06 18:38 41.59863 72.03970 36353 ft 469 kts 66°
2026-05-06 18:38 41.60971 72.08076 36640 ft 469 kts 67°
2026-05-06 18:39 41.62062 72.12126 36899 ft 469 kts 67°
2026-05-06 18:39 41.63164 72.16226 37179 ft 468 kts 67°
2026-05-06 18:39 41.64260 72.20321 37488 ft 466 kts 67°
2026-05-06 18:40 41.66438 72.28466 38003 ft 464 kts 67°
2026-05-06 18:40 41.67525 72.32528 38220 ft 464 kts 67°
2026-05-06 18:40 41.68613 72.36598 38438 ft 464 kts 67°
2026-05-06 18:40 41.69697 72.40663 38756 ft 461 kts 67°
2026-05-06 18:41 41.70763 72.44674 39247 ft 454 kts 67°
2026-05-06 18:41 41.71813 72.48634 39720 ft 448 kts 67°
2026-05-06 18:41 41.72838 72.52491 40150 ft 442 kts 67°
2026-05-06 18:41 41.73865 72.56359 40465 ft 439 kts 68°
2026-05-06 18:42 41.74885 72.60204 40761 ft 436 kts 68°
2026-05-06 18:42 41.75897 72.64025 40951 ft 436 kts 68°
2026-05-06 18:42 41.76913 72.67870 41040 ft 438 kts 68°
2026-05-06 18:43 41.78963 72.75659 41049 ft 447 kts 68°
2026-05-06 18:43 41.81038 72.83604 41045 ft 456 kts 69°
2026-05-06 18:44 41.83139 72.91692 41071 ft 464 kts 69°
2026-05-06 18:44 41.85264 72.99895 41074 ft 472 kts 69°
2026-05-06 18:45 41.87433 73.08293 41074 ft 478 kts 69°
2026-05-06 18:45 41.89604 73.16723 41072 ft 477 kts 69°
2026-05-06 18:46 41.91767 73.25148 41071 ft 477 kts 70°
2026-05-06 18:46 41.93917 73.33539 41075 ft 477 kts 70°
2026-05-06 18:47 41.96072 73.41977 41072 ft 477 kts 70°
2026-05-06 18:47 41.98217 73.50413 41072 ft 477 kts 70°
2026-05-06 18:48 42.00363 73.58878 41075 ft 477 kts 70°
2026-05-06 18:48 42.02498 73.67329 41072 ft 477 kts 70°
2026-05-06 18:49 42.04615 73.75741 41075 ft 477 kts 70°
2026-05-06 18:49 42.06830 73.84153 41065 ft 477 kts 69°
2026-05-06 18:50 42.09108 73.92540 41064 ft 477 kts 69°
2026-05-06 18:50 42.11385 74.00945 41064 ft 477 kts 69°
2026-05-06 18:51 42.13642 74.09347 41064 ft 477 kts 69°
2026-05-06 18:51 42.15875 74.17712 41064 ft 477 kts 69°
2026-05-06 18:52 42.18114 74.26136 41064 ft 477 kts 69°
2026-05-06 18:52 42.20350 74.34573 41064 ft 477 kts 69°
2026-05-06 18:53 42.22578 74.43006 41064 ft 477 kts 69°
2026-05-06 18:53 42.24802 74.51457 41070 ft 477 kts 69°
2026-05-06 18:54 42.27004 74.59853 41094 ft 477 kts 70°
2026-05-06 18:54 42.29215 74.68314 41103 ft 477 kts 69°
2026-05-06 18:55 42.31422 74.76786 41108 ft 477 kts 70°
2026-05-06 18:55 42.33620 74.85258 41110 ft 478 kts 70°
2026-05-06 18:56 42.35814 74.93740 41111 ft 478 kts 70°
2026-05-06 18:56 42.38000 75.02226 41113 ft 478 kts 70°
2026-05-06 18:57 42.40181 75.10716 41126 ft 478 kts 70°
2026-05-06 18:57 42.42408 75.19186 41109 ft 477 kts 66°
2026-05-06 18:58 42.45138 75.27374 41138 ft 476 kts 64°
2026-05-06 18:58 42.47943 75.35431 41148 ft 476 kts 64°
2026-05-06 18:59 42.50786 75.43537 41154 ft 476 kts 64°
2026-05-06 18:59 42.53620 75.51659 41168 ft 476 kts 64°
2026-05-06 19:00 42.56442 75.59790 41182 ft 476 kts 64°
2026-05-06 19:00 42.59256 75.67933 41192 ft 476 kts 64°
2026-05-06 19:01 42.62063 75.76077 41174 ft 476 kts 64°
2026-05-06 19:01 42.64863 75.84226 41183 ft 476 kts 64°
2026-05-06 19:02 42.67663 75.92398 41194 ft 476 kts 64°
2026-05-06 19:02 42.70436 76.00513 41201 ft 476 kts 64°
2026-05-06 19:03 42.73224 76.08699 41211 ft 477 kts 64°
2026-05-06 19:03 42.76008 76.16898 41220 ft 477 kts 64°
2026-05-06 19:04 42.78787 76.25108 41220 ft 477 kts 64°
2026-05-06 19:04 42.81562 76.33327 41232 ft 477 kts 64°
2026-05-06 19:05 42.84328 76.41547 41231 ft 477 kts 64°
2026-05-06 19:05 42.87089 76.49776 41220 ft 477 kts 65°
2026-05-06 19:06 42.90038 76.57800 41209 ft 476 kts 56°
2026-05-06 19:06 42.94347 76.64561 41195 ft 471 kts 39°
2026-05-06 19:07 42.99478 76.70107 41159 ft 469 kts 36°
2026-05-06 19:07 43.04731 76.75399 41125 ft 468 kts 35°
2026-05-06 19:08 43.09980 76.80667 41108 ft 468 kts 36°
2026-05-06 19:08 43.15215 76.85979 41087 ft 468 kts 36°
2026-05-06 19:09 43.20403 76.91281 41074 ft 468 kts 36°
2026-05-06 19:09 43.25652 76.96583 41068 ft 468 kts 35°
2026-05-06 19:10 43.30913 77.01865 41072 ft 468 kts 35°
2026-05-06 19:10 43.36084 77.07310 41078 ft 469 kts 42°
2026-05-06 19:11 43.40298 77.14171 41071 ft 472 kts 53°
2026-05-06 19:11 43.44029 77.21643 41069 ft 474 kts 56°
2026-05-06 19:12 43.47645 77.29200 41070 ft 475 kts 56°
2026-05-06 19:12 43.51283 77.36804 41073 ft 476 kts 56°
2026-05-06 19:13 43.54917 77.44440 41076 ft 477 kts 59°
2026-05-06 19:13 43.57441 77.52888 41069 ft 479 kts 77°
2026-05-06 19:14 43.58024 77.62067 41071 ft 483 kts 89°
2026-05-06 19:14 43.57935 77.71316 41073 ft 486 kts 91°
2026-05-06 19:15 43.57735 77.80659 41069 ft 487 kts 91°
2026-05-06 19:15 43.57558 77.90015 41073 ft 487 kts 91°
2026-05-06 19:16 43.57405 77.99381 41075 ft 488 kts 91°
2026-05-06 19:16 43.57257 78.08673 41074 ft 487 kts 91°
2026-05-06 19:17 43.57102 78.18038 41074 ft 487 kts 91°
2026-05-06 19:17 43.56939 78.27382 41074 ft 487 kts 91°
2026-05-06 19:18 43.56768 78.36714 41074 ft 487 kts 91°
2026-05-06 19:18 43.56619 78.44484 41070 ft 487 kts 91°
2026-05-06 19:19 43.56402 78.55331 41075 ft 486 kts 91°
2026-05-06 19:19 43.56240 78.63146 41064 ft 486 kts 91°
2026-05-06 19:20 43.56041 78.72418 41044 ft 486 kts 91°
2026-05-06 19:20 43.55833 78.81733 41046 ft 486 kts 91°
2026-05-06 19:21 43.55617 78.91064 41047 ft 486 kts 92°
2026-05-06 19:21 43.55395 79.00320 41044 ft 485 kts 92°
2026-05-06 19:22 43.55165 79.09638 41046 ft 485 kts 92°
2026-05-06 19:22 43.54926 79.18949 41044 ft 485 kts 92°
2026-05-06 19:23 43.54681 79.28255 41049 ft 485 kts 92°
2026-05-06 19:23 43.54429 79.37491 41043 ft 484 kts 92°
2026-05-06 19:24 43.54169 79.46780 41045 ft 484 kts 92°
2026-05-06 19:24 43.53901 79.56065 41043 ft 484 kts 92°
2026-05-06 19:25 43.53626 79.65352 41044 ft 484 kts 92°
2026-05-06 19:25 43.53345 79.74575 41048 ft 484 kts 92°
2026-05-06 19:26 43.53055 79.83862 41053 ft 484 kts 92°
2026-05-06 19:26 43.52757 79.93147 41055 ft 484 kts 92°
2026-05-06 19:27 43.52453 80.02427 41054 ft 484 kts 92°
2026-05-06 19:27 43.52141 80.11703 41055 ft 484 kts 93°
2026-05-06 19:28 43.51821 80.20974 41054 ft 484 kts 93°
2026-05-06 19:28 43.51494 80.30244 41054 ft 484 kts 93°
2026-05-06 19:29 43.51162 80.39451 41054 ft 484 kts 93°
2026-05-06 19:29 43.50821 80.48711 41054 ft 484 kts 93°
2026-05-06 19:30 43.50471 80.57983 41054 ft 484 kts 93°
2026-05-06 19:30 43.50114 80.67253 41054 ft 484 kts 93°
2026-05-06 19:31 43.49794 80.76541 41066 ft 484 kts 92°
2026-05-06 19:31 43.49599 80.90385 41071 ft 484 kts 91°
2026-05-06 19:32 43.49484 80.99660 41073 ft 483 kts 91°
2026-05-06 19:32 43.49344 81.08920 41075 ft 483 kts 91°
2026-05-06 19:33 43.49187 81.18171 41075 ft 483 kts 91°
2026-05-06 19:33 43.49021 81.27422 41074 ft 483 kts 91°
2026-05-06 19:34 43.48849 81.36669 41072 ft 483 kts 92°
2026-05-06 19:34 43.48670 81.45858 41075 ft 483 kts 92°
2026-05-06 19:35 43.48484 81.55100 41079 ft 483 kts 92°
2026-05-06 19:35 43.48290 81.64357 41082 ft 483 kts 92°
2026-05-06 19:36 43.48084 81.73611 41082 ft 483 kts 92°
2026-05-06 19:36 43.47863 81.82793 41083 ft 483 kts 92°
2026-05-06 19:37 43.47631 81.92041 41082 ft 483 kts 92°
2026-05-06 19:37 43.47392 82.01296 41082 ft 483 kts 92°
2026-05-06 19:38 43.47148 82.10497 41082 ft 483 kts 92°
2026-05-06 19:38 43.46897 82.19723 41082 ft 483 kts 92°
2026-05-06 19:39 43.46637 82.28967 41093 ft 483 kts 92°
2026-05-06 19:39 43.46370 82.38209 41091 ft 483 kts 92°
2026-05-06 19:40 43.46095 82.47446 41096 ft 483 kts 92°
2026-05-06 19:40 43.45815 82.56623 41081 ft 483 kts 92°
2026-05-06 19:41 43.45526 82.65855 41092 ft 482 kts 92°
2026-05-06 19:41 43.45229 82.75094 41096 ft 482 kts 92°
2026-05-06 19:42 43.44925 82.84337 41094 ft 482 kts 93°
2026-05-06 19:42 43.44613 82.93569 41092 ft 482 kts 93°
2026-05-06 19:43 43.44296 83.02734 41094 ft 482 kts 93°
2026-05-06 19:43 43.43970 83.11965 41095 ft 482 kts 93°
2026-05-06 19:44 43.43636 83.21187 41086 ft 482 kts 93°
2026-05-06 19:44 43.43296 83.30396 41097 ft 482 kts 93°
2026-05-06 19:45 43.42911 83.39551 41104 ft 481 kts 95°
2026-05-06 19:45 43.42207 83.48704 41105 ft 481 kts 97°
2026-05-06 19:46 43.41384 83.57853 41098 ft 481 kts 97°
2026-05-06 19:46 43.40576 83.66955 41131 ft 482 kts 97°
2026-05-06 19:47 43.39783 83.76105 41146 ft 482 kts 97°
2026-05-06 19:47 43.38994 83.85250 41146 ft 482 kts 97°
2026-05-06 19:48 43.38197 83.94402 41146 ft 482 kts 97°
2026-05-06 19:48 43.37392 84.03550 41137 ft 482 kts 97°
2026-05-06 19:49 43.36580 84.12686 41139 ft 482 kts 97°
2026-05-06 19:49 43.35760 84.21816 41113 ft 481 kts 97°
2026-05-06 19:50 43.34938 84.30907 41120 ft 481 kts 97°
2026-05-06 19:50 43.34100 84.40030 41120 ft 481 kts 98°
2026-05-06 19:51 43.33239 84.49147 41122 ft 481 kts 98°
2026-05-06 19:51 43.32367 84.58267 41108 ft 481 kts 98°
2026-05-06 19:52 43.31494 84.67330 41121 ft 481 kts 98°
2026-05-06 19:52 43.30612 84.76436 41103 ft 481 kts 98°
2026-05-06 19:53 43.29721 84.85550 41114 ft 481 kts 98°
2026-05-06 19:53 43.28822 84.94665 41114 ft 481 kts 98°
2026-05-06 19:54 43.27916 85.03781 41108 ft 481 kts 98°
2026-05-06 19:54 43.27004 85.12883 41106 ft 481 kts 98°
2026-05-06 19:55 43.26089 85.21933 41105 ft 481 kts 98°
2026-05-06 19:55 43.25161 85.31038 41110 ft 482 kts 98°
2026-05-06 19:56 43.24227 85.40133 41109 ft 482 kts 98°
2026-05-06 19:56 43.23286 85.49234 41118 ft 482 kts 98°
2026-05-06 19:57 43.22336 85.58341 41120 ft 482 kts 98°
2026-05-06 19:57 43.21379 85.67432 41106 ft 482 kts 99°
2026-05-06 19:58 43.20422 85.76468 41108 ft 482 kts 99°
2026-05-06 19:58 43.19452 85.85555 41108 ft 482 kts 98°
2026-05-06 19:59 43.19354 85.94703 41104 ft 481 kts 82°
2026-05-06 19:59 43.21291 86.03422 41101 ft 478 kts 63°
2026-05-06 20:00 43.24718 86.11221 41096 ft 476 kts 57°
2026-05-06 20:00 43.28369 86.18725 41098 ft 475 kts 56°
2026-05-06 20:01 43.32078 86.26241 41104 ft 475 kts 56°
2026-05-06 20:01 43.35774 86.33774 41099 ft 475 kts 56°
2026-05-06 20:02 43.39449 86.41330 41105 ft 475 kts 56°
2026-05-06 20:02 43.43118 86.48898 41106 ft 475 kts 56°
2026-05-06 20:03 43.46802 86.56465 41113 ft 475 kts 56°
2026-05-06 20:03 43.50460 86.63985 41096 ft 476 kts 56°
2026-05-06 20:04 43.54135 86.71566 41097 ft 476 kts 56°
2026-05-06 20:04 43.57772 86.79186 41097 ft 476 kts 57°
2026-05-06 20:05 43.61387 86.86838 41097 ft 476 kts 57°
2026-05-06 20:05 43.64997 86.94497 41096 ft 476 kts 57°
2026-05-06 20:06 43.67998 87.00871 41104 ft 476 kts 57°
2026-05-06 20:06 43.72195 87.09800 41096 ft 476 kts 57°
2026-05-06 20:07 43.75196 87.16207 41098 ft 476 kts 57°
2026-05-06 20:07 43.78789 87.23907 41099 ft 476 kts 57°
2026-05-06 20:08 43.82377 87.31615 41093 ft 476 kts 57°
2026-05-06 20:08 43.85958 87.39330 41100 ft 476 kts 57°
2026-05-06 20:09 43.89539 87.47065 41098 ft 476 kts 57°
2026-05-06 20:09 43.93252 87.54683 41099 ft 476 kts 53°
2026-05-06 20:10 43.97262 87.61988 41102 ft 475 kts 52°
2026-05-06 20:10 44.01315 87.69245 41104 ft 475 kts 52°
2026-05-06 20:11 44.05331 87.76537 41105 ft 475 kts 52°
2026-05-06 20:11 44.09329 87.83877 41104 ft 475 kts 53°
2026-05-06 20:12 44.13282 87.91174 41108 ft 475 kts 53°
2026-05-06 20:12 44.16747 87.98999 41097 ft 476 kts 66°
2026-05-06 20:13 44.18666 88.07831 41106 ft 478 kts 77°
2026-05-06 20:13 44.20063 88.16920 41094 ft 480 kts 79°
2026-05-06 20:14 44.21364 88.26047 41094 ft 480 kts 79°
2026-05-06 20:14 44.22680 88.35183 41102 ft 480 kts 79°
2026-05-06 20:15 44.24012 88.44303 41096 ft 480 kts 78°
2026-05-06 20:15 44.25350 88.53448 41098 ft 481 kts 78°
2026-05-06 20:16 44.26671 88.62532 41099 ft 481 kts 78°
2026-05-06 20:16 44.27994 88.71689 41098 ft 481 kts 79°
2026-05-06 20:17 44.29308 88.80847 41098 ft 481 kts 79°
2026-05-06 20:17 44.30614 88.90009 41108 ft 481 kts 79°
2026-05-06 20:18 44.31912 88.99165 41109 ft 481 kts 79°
2026-05-06 20:18 44.33203 89.08328 41102 ft 481 kts 79°
2026-05-06 20:19 44.34487 89.17491 41095 ft 481 kts 79°
2026-05-06 20:19 44.35758 89.26621 41099 ft 482 kts 79°
2026-05-06 20:20 44.37030 89.35820 41099 ft 481 kts 79°
2026-05-06 20:20 44.38295 89.45022 41099 ft 482 kts 79°
2026-05-06 20:21 44.39552 89.54225 41097 ft 482 kts 79°
2026-05-06 20:21 44.40754 89.63459 41101 ft 482 kts 83°
2026-05-06 20:22 44.40645 89.72741 41095 ft 482 kts 101°
2026-05-06 20:22 44.38999 89.81847 41102 ft 484 kts 107°
2026-05-06 20:23 44.37023 89.90843 41101 ft 485 kts 108°
2026-05-06 20:23 44.35003 89.99833 41097 ft 485 kts 108°
2026-05-06 20:24 44.33006 90.08837 41099 ft 485 kts 108°
2026-05-06 20:24 44.31024 90.17842 41106 ft 485 kts 108°
2026-05-06 20:25 44.29038 90.26851 41102 ft 485 kts 108°
2026-05-06 20:25 44.27048 90.35842 41100 ft 485 kts 108°
2026-05-06 20:26 44.25049 90.44829 41100 ft 485 kts 108°
2026-05-06 20:26 44.23038 90.53826 41103 ft 486 kts 108°
2026-05-06 20:27 44.21020 90.62819 41097 ft 486 kts 108°
2026-05-06 20:27 44.19008 90.71748 41098 ft 486 kts 108°
2026-05-06 20:28 44.16972 90.80747 41107 ft 487 kts 108°
2026-05-06 20:28 44.14928 90.89740 41101 ft 487 kts 108°
2026-05-06 20:29 44.12878 90.98727 41090 ft 487 kts 108°
2026-05-06 20:29 44.10820 91.07715 41090 ft 487 kts 109°
2026-05-06 20:30 44.07718 91.21197 41089 ft 488 kts 109°
2026-05-06 20:31 44.05638 91.30189 41095 ft 488 kts 109°
2026-05-06 20:31 44.03567 91.39112 41091 ft 488 kts 109°
2026-05-06 20:32 44.01467 91.48083 41091 ft 488 kts 109°
2026-05-06 20:32 43.99353 91.57022 41090 ft 488 kts 109°
2026-05-06 20:33 43.97225 91.65977 41089 ft 489 kts 109°
2026-05-06 20:33 43.95088 91.74941 41098 ft 489 kts 109°
2026-05-06 20:34 43.92944 91.83903 41116 ft 489 kts 109°
2026-05-06 20:34 43.90791 91.92866 41106 ft 489 kts 109°
2026-05-06 20:35 43.88636 92.01803 41125 ft 489 kts 110°
2026-05-06 20:35 43.86471 92.10747 41124 ft 489 kts 110°
2026-05-06 20:36 43.84312 92.19631 41108 ft 489 kts 110°
2026-05-06 20:36 43.82134 92.28556 41106 ft 489 kts 110°
2026-05-06 20:37 43.79947 92.37486 41106 ft 489 kts 110°
2026-05-06 20:37 43.77753 92.46410 41117 ft 490 kts 110°
2026-05-06 20:38 43.75550 92.55332 41125 ft 490 kts 110°
2026-05-06 20:38 43.73339 92.64253 41125 ft 490 kts 110°
2026-05-06 20:39 43.71130 92.73131 41125 ft 490 kts 110°
2026-05-06 20:39 43.68905 92.82043 41127 ft 491 kts 110°
2026-05-06 20:40 43.66663 92.90984 41128 ft 492 kts 111°
2026-05-06 20:40 43.64421 92.99933 41137 ft 492 kts 110°
2026-05-06 20:41 43.62256 93.08920 41135 ft 492 kts 110°
2026-05-06 20:41 43.60133 93.17853 41112 ft 492 kts 110°
2026-05-06 20:42 43.57990 93.26814 41115 ft 492 kts 110°
2026-05-06 20:42 43.55826 93.35793 41125 ft 493 kts 110°
2026-05-06 20:43 43.53652 93.44765 41126 ft 493 kts 110°
2026-05-06 20:43 43.51471 93.53725 41125 ft 493 kts 110°
2026-05-06 20:44 43.49284 93.62680 41127 ft 493 kts 110°
2026-05-06 20:44 43.47091 93.71622 41146 ft 493 kts 110°
2026-05-06 20:45 43.44905 93.80502 41146 ft 493 kts 110°
2026-05-06 20:45 43.42696 93.89443 41147 ft 493 kts 110°
2026-05-06 20:46 43.40479 93.98379 41147 ft 493 kts 110°
2026-05-06 20:46 43.38256 94.07308 41155 ft 493 kts 110°
2026-05-06 20:47 43.36024 94.16235 41156 ft 494 kts 111°
2026-05-06 20:47 43.33795 94.25118 41156 ft 495 kts 111°
2026-05-06 20:48 43.31541 94.34064 41156 ft 495 kts 111°
2026-05-06 20:48 43.29279 94.43010 41156 ft 496 kts 111°
2026-05-06 20:49 43.27011 94.51944 41156 ft 496 kts 111°
2026-05-06 20:49 43.24731 94.60892 41164 ft 497 kts 111°
2026-05-06 20:50 43.22452 94.69799 41166 ft 497 kts 111°
2026-05-06 20:50 43.20153 94.78754 41165 ft 497 kts 111°
2026-05-06 20:51 43.18238 94.86189 41165 ft 498 kts 111°
2026-05-06 20:51 43.15924 94.95139 41167 ft 499 kts 111°
2026-05-06 20:52 43.13314 95.03913 41170 ft 495 kts 122°
2026-05-06 20:52 43.09132 95.11264 41166 ft 487 kts 142°
2026-05-06 20:53 43.03740 95.16857 41164 ft 487 kts 149°
2026-05-06 20:53 42.98108 95.22036 41167 ft 488 kts 150°
2026-05-06 20:54 42.92475 95.27153 41165 ft 489 kts 150°
2026-05-06 20:54 42.86816 95.32353 41165 ft 490 kts 150°
2026-05-06 20:55 42.81178 95.37563 41166 ft 490 kts 150°
2026-05-06 20:55 42.75530 95.42781 41176 ft 490 kts 150°
2026-05-06 20:56 42.69885 95.47984 41175 ft 491 kts 150°
2026-05-06 20:56 42.64227 95.53183 41174 ft 491 kts 150°
2026-05-06 20:57 42.58570 95.58370 41173 ft 491 kts 151°
2026-05-06 20:57 42.52908 95.63550 41174 ft 491 kts 151°
2026-05-06 20:58 42.47238 95.68735 41170 ft 492 kts 149°
2026-05-06 20:58 42.42220 95.75143 41175 ft 503 kts 131°
2026-05-06 20:58 42.40364 95.79103 41173 ft 507 kts 120°
2026-05-06 20:59 42.39057 95.83543 41173 ft 510 kts 108°
2026-05-06 20:59 42.38393 95.88252 41180 ft 511 kts 97°
2026-05-06 20:59 42.38115 95.93039 41186 ft 511 kts 95°
2026-05-06 21:00 42.37857 96.02642 41184 ft 511 kts 93°
2026-05-06 21:00 42.37672 96.12264 41183 ft 511 kts 93°
2026-05-06 21:01 42.37435 96.21885 41183 ft 512 kts 94°
2026-05-06 21:01 42.37154 96.31501 41184 ft 512 kts 94°
2026-05-06 21:02 42.36855 96.41109 41183 ft 511 kts 94°
2026-05-06 21:02 42.36551 96.50652 41192 ft 511 kts 94°
2026-05-06 21:03 42.36239 96.60257 41192 ft 511 kts 94°
2026-05-06 21:03 42.35919 96.69878 41192 ft 512 kts 94°
2026-05-06 21:04 42.35591 96.79498 41193 ft 512 kts 94°
2026-05-06 21:04 42.35256 96.89107 41193 ft 512 kts 94°
2026-05-06 21:05 42.34912 96.98714 41192 ft 512 kts 94°
2026-05-06 21:05 42.34562 97.08277 41201 ft 513 kts 94°
2026-05-06 21:06 42.34201 97.17908 41202 ft 513 kts 94°
2026-05-06 21:06 42.33832 97.27546 41202 ft 514 kts 94°
2026-05-06 21:07 42.33453 97.37211 41202 ft 514 kts 94°
2026-05-06 21:07 42.33068 97.46864 41202 ft 515 kts 94°
2026-05-06 21:08 42.32677 97.56480 41203 ft 516 kts 94°
2026-05-06 21:08 42.32276 97.66154 41210 ft 517 kts 94°
2026-05-06 21:09 42.31861 97.75866 41211 ft 518 kts 94°
2026-05-06 21:09 42.31431 97.85581 41211 ft 518 kts 94°
2026-05-06 21:10 42.31005 97.95300 41210 ft 518 kts 95°
2026-05-06 21:10 42.30571 98.05028 41211 ft 518 kts 95°
2026-05-06 21:11 42.30125 98.14765 41210 ft 519 kts 95°
2026-05-06 21:11 42.29676 98.24431 41212 ft 518 kts 95°
2026-05-06 21:12 42.29209 98.34156 41220 ft 518 kts 95°
2026-05-06 21:12 42.28713 98.43871 41220 ft 518 kts 95°
2026-05-06 21:13 42.28205 98.53597 41221 ft 519 kts 95°
2026-05-06 21:13 42.27688 98.63331 41220 ft 518 kts 95°
2026-05-06 21:14 42.27173 98.72985 41220 ft 518 kts 95°
2026-05-06 21:14 42.26644 98.82709 41220 ft 518 kts 95°
2026-05-06 21:15 42.26108 98.92401 41223 ft 518 kts 95°
2026-05-06 21:15 42.25565 99.02105 41229 ft 518 kts 95°
2026-05-06 21:16 42.25011 99.11802 41229 ft 518 kts 95°
2026-05-06 21:16 42.24452 99.21510 41229 ft 519 kts 95°
2026-05-06 21:17 42.23883 99.31240 41230 ft 520 kts 95°
2026-05-06 21:17 42.23310 99.40898 41228 ft 520 kts 95°
2026-05-06 21:18 42.22722 99.50655 41229 ft 521 kts 95°
2026-05-06 21:18 42.22127 99.60398 41229 ft 522 kts 95°
2026-05-06 21:19 42.21520 99.70162 41240 ft 522 kts 95°
2026-05-06 21:19 42.20905 99.79935 41234 ft 522 kts 95°
2026-05-06 21:20 42.20281 99.89709 41240 ft 523 kts 95°
2026-05-06 21:20 42.19650 99.99486 41238 ft 523 kts 95°
2026-05-06 21:21 42.19013 100.09264 41240 ft 524 kts 96°
2026-05-06 21:21 42.18363 100.19058 41241 ft 524 kts 96°
2026-05-06 21:22 42.17708 100.28787 41246 ft 524 kts 96°
2026-05-06 21:22 42.17042 100.38551 41250 ft 523 kts 96°
2026-05-06 21:23 42.16368 100.48324 41246 ft 523 kts 96°
2026-05-06 21:23 42.15686 100.58097 41245 ft 523 kts 96°
2026-05-06 21:24 42.14996 100.67859 41247 ft 523 kts 96°
2026-05-06 21:24 42.14302 100.77564 41245 ft 523 kts 96°
2026-05-06 21:25 42.13596 100.87322 41245 ft 522 kts 96°
2026-05-06 21:25 42.12883 100.97063 41250 ft 523 kts 96°
2026-05-06 21:26 42.11611 101.06677 41249 ft 522 kts 108°
2026-05-06 21:26 42.09379 101.15935 41251 ft 523 kts 110°
2026-05-06 21:27 42.06941 101.25165 41254 ft 524 kts 111°
2026-05-06 21:27 42.04471 101.34406 41255 ft 525 kts 111°
2026-05-06 21:28 42.02009 101.43665 41254 ft 526 kts 111°
2026-05-06 21:28 41.99549 101.52937 41259 ft 526 kts 111°
2026-05-06 21:29 41.97096 101.62165 41260 ft 528 kts 111°
2026-05-06 21:29 41.94613 101.71463 41254 ft 528 kts 111°
2026-05-06 21:30 41.92125 101.80746 41257 ft 528 kts 111°
2026-05-06 21:30 41.89628 101.90025 41256 ft 528 kts 111°
2026-05-06 21:31 41.87124 101.99292 41254 ft 528 kts 111°
2026-05-06 21:31 41.84610 102.08562 41261 ft 528 kts 112°
2026-05-06 21:32 41.82109 102.17752 41258 ft 528 kts 112°
2026-05-06 21:32 41.78318 102.31618 41266 ft 528 kts 112°
2026-05-06 21:33 41.75775 102.40873 41267 ft 529 kts 112°
2026-05-06 21:33 41.73219 102.50145 41265 ft 530 kts 112°
2026-05-06 21:34 41.70655 102.59409 41266 ft 531 kts 112°
2026-05-06 21:34 41.68090 102.68646 41266 ft 532 kts 112°
2026-05-06 21:35 41.65501 102.77934 41266 ft 533 kts 112°
2026-05-06 21:35 41.62901 102.87232 41266 ft 534 kts 112°
2026-05-06 21:36 41.60284 102.96555 41266 ft 536 kts 112°
2026-05-06 21:36 41.58101 103.04304 41266 ft 537 kts 112°
2026-05-06 21:37 41.55460 103.13640 41267 ft 537 kts 112°
2026-05-06 21:37 41.52811 103.22973 41267 ft 537 kts 112°
2026-05-06 21:38 41.50150 103.32311 41266 ft 538 kts 112°
2026-05-06 21:38 41.47480 103.41650 41273 ft 539 kts 112°
2026-05-06 21:39 41.44803 103.50979 41275 ft 539 kts 112°
2026-05-06 21:39 41.42116 103.60308 41275 ft 539 kts 112°
2026-05-06 21:40 41.39420 103.69635 41296 ft 540 kts 113°
2026-05-06 21:40 41.36712 103.78967 41305 ft 539 kts 113°
2026-05-06 21:41 41.34020 103.88214 41298 ft 539 kts 113°
2026-05-06 21:41 41.31300 103.97523 41307 ft 539 kts 113°
2026-05-06 21:42 41.28574 104.06819 41303 ft 540 kts 113°
2026-05-06 21:42 41.25830 104.16142 41303 ft 542 kts 113°
2026-05-06 21:43 41.23073 104.25476 41298 ft 542 kts 113°
2026-05-06 21:43 41.20323 104.34755 41306 ft 543 kts 113°
2026-05-06 21:44 41.17539 104.44114 41299 ft 544 kts 114°
2026-05-06 21:44 41.14751 104.53454 41302 ft 545 kts 114°
2026-05-06 21:45 41.11966 104.62748 41300 ft 545 kts 114°
2026-05-06 21:45 41.09132 104.72074 41302 ft 545 kts 115°
2026-05-06 21:46 41.06074 104.81279 41303 ft 545 kts 117°
2026-05-06 21:46 41.02930 104.90447 41299 ft 546 kts 117°
2026-05-06 21:47 40.99797 104.99606 41303 ft 546 kts 117°
2026-05-06 21:47 40.96665 105.08798 41291 ft 547 kts 116°
2026-05-06 21:48 40.93551 105.17934 41299 ft 547 kts 117°
2026-05-06 21:48 40.90418 105.27093 41282 ft 547 kts 117°
2026-05-06 21:49 40.87269 105.36268 41300 ft 548 kts 117°
2026-05-06 21:49 40.84113 105.45433 41298 ft 548 kts 117°
2026-05-06 21:50 40.80947 105.54597 41297 ft 548 kts 117°
2026-05-06 21:50 40.77793 105.63694 41299 ft 549 kts 117°
2026-05-06 21:51 40.74606 105.72859 41296 ft 549 kts 117°
2026-05-06 21:51 40.71410 105.82018 41303 ft 550 kts 118°
2026-05-06 21:52 40.68204 105.91180 41294 ft 551 kts 118°
2026-05-06 21:52 40.64983 106.00351 41298 ft 551 kts 118°
2026-05-06 21:53 40.61758 106.09507 41293 ft 551 kts 118°
2026-05-06 21:53 40.58545 106.18600 41285 ft 551 kts 118°
2026-05-06 21:54 40.55304 106.27740 41296 ft 552 kts 118°
2026-05-06 21:54 40.52056 106.36874 41300 ft 551 kts 118°
2026-05-06 21:55 40.48796 106.46009 41297 ft 551 kts 118°
2026-05-06 21:55 40.45551 106.55075 41296 ft 551 kts 118°
2026-05-06 21:56 40.42282 106.64180 41295 ft 550 kts 118°
2026-05-06 21:56 40.39009 106.73265 41288 ft 550 kts 118°
2026-05-06 21:57 40.35724 106.82357 41299 ft 550 kts 118°
2026-05-06 21:57 40.32645 106.91480 41305 ft 552 kts 109°
2026-05-06 21:58 40.31748 106.96392 41305 ft 553 kts 98°
2026-05-06 21:58 40.31536 107.01406 41304 ft 550 kts 86°
2026-05-06 21:58 40.32411 107.11307 41312 ft 545 kts 79°
2026-05-06 21:59 40.33660 107.21094 41304 ft 544 kts 78°
2026-05-06 21:59 40.34938 107.30864 41303 ft 543 kts 78°
2026-05-06 22:00 40.36159 107.40592 41308 ft 543 kts 79°
2026-05-06 22:00 40.37352 107.50380 41307 ft 544 kts 79°
2026-05-06 22:01 40.38532 107.60197 41303 ft 544 kts 79°
2026-05-06 22:01 40.39704 107.70018 41302 ft 544 kts 79°
2026-05-06 22:02 40.40869 107.79836 41296 ft 544 kts 79°
2026-05-06 22:02 40.42021 107.89607 41298 ft 545 kts 79°
2026-05-06 22:03 40.43170 107.99439 41296 ft 545 kts 79°
2026-05-06 22:03 40.44310 108.09280 41300 ft 545 kts 80°
2026-05-06 22:04 40.45443 108.19146 41306 ft 545 kts 80°
2026-05-06 22:04 40.46566 108.29002 41308 ft 545 kts 80°